Flag Weather past 2 weeks in Kaufbeuren, Bavaria, Germany

Now
55 °F

Cool.


Feels Like: 54 °F
Forecast: 42 / 60 °F
Wind: 6 mph from Northeast

Location: Altenstadt Airport

Current Time: Nov 23, 2014 at 3:50:16 PM

Latest Report: Nov 23, 2014 at 2:20 PM


Visibility: N/A

Pressure: 30.18 "Hg

Humidity: 72%

Dew point: 46 °F

Location of KaufbeurenLocation

Historic Weather in Kaufbeuren — Graph

°F

Kaufbeuren temperature yesterday

Maximum temperature yesterday: 55 °F (at 1:20 PM)
Minimum temperature yesterday: 37 °F (at 6:20 AM)
Average temperature yesterday: 44 °F

Past Weeks' High & Low Weather Summary

 TemperatureHumidityPressure
High55 °F (Nov 12, 12:20 PM)100% (Nov 8, 9:20 PM)30.27 "Hg (Nov 8, 9:20 PM)
Low28 °F (Nov 17, 2:20 AM)58% (Nov 9, 12:20 PM)29.47 "Hg (Nov 15, 11:20 PM)
Average41 °F93%29.87 "Hg
* Reported Nov 8 2:20 PM — Nov 23 2:20 PM, Kaufbeuren, Weather by CustomWeather, © 2014

Note: Actual official high and low records may vary slightly from our data, if they occured in-between our weather recording intervals... More about our weather records

Advertising

Kaufbeuren weather history for previous 24 hours

 ConditionsComfort  
Time TempWeatherWind HumidityBarometerVisibility
2:20 PM
Nov 23
55 °FCool.6 mph72%30.18 "HgN/A
1:20 PM55 °FCool.2 mph63%30.18 "HgN/A
12:20 PM55 °FCool.1 mph63%30.18 "HgN/A
11:20 AM50 °FCool.5 mph76%30.21 "HgN/A
10:20 AM43 °FQuite cool.3 mph93%30.21 "HgN/A
9:20 AM36 °FChilly.3 mph100%30.21 "HgN/A
8:20 AM32 °FChilly.3 mph100%30.21 "HgN/A
7:20 AM32 °FChilly.5 mph100%30.18 "HgN/A
6:20 AM32 °FChilly.3 mph100%30.18 "HgN/A
5:20 AM34 °FChilly.2 mph93%30.18 "HgN/A
4:20 AM32 °FChilly.2 mph100%30.15 "HgN/A
3:20 AM34 °FChilly.2 mph100%30.18 "HgN/A
2:20 AM34 °FChilly.2 mph100%30.18 "HgN/A
1:20 AM36 °FChilly.3 mph100%30.18 "HgN/A
12:20 AM37 °FChilly.2 mph93%30.18 "HgN/A
11:20 PM
Nov 22
39 °FChilly.3 mph100%30.18 "HgN/A
10:20 PM39 °FChilly.3 mph100%30.15 "HgN/A
9:20 PM41 °FQuite cool.1 mph100%30.15 "HgN/A
8:20 PM43 °FQuite cool.No wind93%30.15 "HgN/A
7:20 PM41 °FQuite cool.1 mph93%30.15 "HgN/A
6:20 PM45 °FQuite cool.1 mph93%30.15 "HgN/A
5:20 PM46 °FCool.3 mph82%30.15 "HgN/A
4:20 PM48 °FCool.5 mph82%30.15 "HgN/A
3:20 PM52 °FCool.7 mph77%30.15 "HgN/A
Weather by CustomWeather, © 2014

See weather overviewHow to use our weather pages